• In Belarus
  • List of Countries
  • For 7 days
  • Water Temperature
  • Satellite Maps
  • Weather Map
  • Weather Widgets
  • user-avatar
    Login

    Hourly Weather Monte Carlo

    Today, 26 March, Tuesday

    Time Temperature Precipitation Wind Pressure Humidity
    00:00 +12°C° 0 mm 11 mps 744 mmHg 52%
    01:00 +12°C° 0.3 mm 11 mps 745 mmHg 48%
    02:00 +11°C° 0.3 mm 11 mps 745 mmHg 45%
    03:00 +9°C° 0.3 mm 11 mps 746 mmHg 41%
    04:00 +9°C° 0.1 mm 12 mps 747 mmHg 39%
    05:00 +9°C° 0.1 mm 13 mps 748 mmHg 36%
    06:00 +8°C° 0.1 mm 14 mps 749 mmHg 33%
    07:00 +9°C° 0 mm 13 mps 750 mmHg 32%
    08:00 +10°C° 0 mm 13 mps 750 mmHg 31%
    09:00 +10°C° 0 mm 12 mps 751 mmHg 29%
    10:00 +12°C° 0 mm 11 mps 751 mmHg 25%
    11:00 +13°C° 0 mm 9 mps 751 mmHg 21%
    12:00 +15°C° 0 mm 8 mps 751 mmHg 17%
    13:00 +15°C° 0 mm 8 mps 751 mmHg 17%
    14:00 +15°C° 0 mm 8 mps 751 mmHg 16%
    15:00 +16°C° 0 mm 7 mps 751 mmHg 16%
    16:00 +15°C° 0 mm 7 mps 751 mmHg 19%
    17:00 +14°C° 0 mm 6 mps 751 mmHg 22%
    18:00 +13°C° 0 mm 5 mps 752 mmHg 25%
    19:00 +12°C° 0 mm 5 mps 752 mmHg 25%
    20:00 +10°C° 0 mm 5 mps 752 mmHg 26%
    21:00 +9°C° 0 mm 5 mps 753 mmHg 26%
    22:00 +9°C° 0 mm 5 mps 753 mmHg 26%
    23:00 +9°C° 0 mm 5 mps 753 mmHg 27%

    Tomorrow, 27 March, Wednesday

    Time Temperature Precipitation Wind Pressure Humidity
    00:00 +9°C° 0 mm 5 mps 754 mmHg 27%
    01:00 +10°C° 0 mm 4 mps 754 mmHg 28%
    02:00 +8°C° 0 mm 4 mps 754 mmHg 28%
    03:00 +8°C° 0 mm 4 mps 754 mmHg 28%
    04:00 +8°C° 0 mm 4 mps 754 mmHg 28%
    05:00 +8°C° 0 mm 4 mps 754 mmHg 28%
    06:00 +9°C° 0 mm 3 mps 754 mmHg 28%
    07:00 +11°C° 0 mm 4 mps 754 mmHg 26%
    08:00 +12°C° 0 mm 4 mps 754 mmHg 25%
    09:00 +14°C° 0 mm 4 mps 754 mmHg 23%
    10:00 +15°C° 0 mm 5 mps 754 mmHg 25%
    11:00 +15°C° 0 mm 5 mps 754 mmHg 27%
    12:00 +16°C° 0 mm 5 mps 755 mmHg 28%
    13:00 +15°C° 0 mm 5 mps 754 mmHg 32%
    14:00 +15°C° 0 mm 4 mps 754 mmHg 35%
    15:00 +15°C° 0 mm 4 mps 754 mmHg 38%
    16:00 +14°C° 0 mm 3 mps 754 mmHg 43%
    17:00 +14°C° 0 mm 2 mps 755 mmHg 47%
    18:00 +13°C° 0 mm 1 mps 755 mmHg 52%
    19:00 +12°C° 0 mm 2 mps 755 mmHg 51%
    20:00 +12°C° 0 mm 2 mps 756 mmHg 50%
    21:00 +11°C° 0 mm 3 mps 757 mmHg 49%
    22:00 +12°C° 0 mm 2 mps 757 mmHg 46%
    23:00 +12°C° 0 mm 2 mps 757 mmHg 43%

    Day after tomorrow, 28 March, Thursday

    Time Temperature Precipitation Wind Pressure Humidity
    00:00 +10°C° 0 mm 2 mps 757 mmHg 40%
    01:00 +10°C° 0 mm 2 mps 757 mmHg 39%
    02:00 +10°C° 0 mm 2 mps 757 mmHg 38%
    03:00 +10°C° 0 mm 2 mps 757 mmHg 37%
    04:00 +10°C° 0 mm 2 mps 757 mmHg 36%
    05:00 +10°C° 0 mm 3 mps 757 mmHg 36%
    06:00 +10°C° 0 mm 3 mps 757 mmHg 36%
    07:00 +12°C° 0 mm 3 mps 757 mmHg 34%
    08:00 +13°C° 0 mm 3 mps 757 mmHg 33%
    09:00 +16°C° 0 mm 3 mps 757 mmHg 31%
    10:00 +16°C° 0 mm 3 mps 757 mmHg 32%
    11:00 +17°C° 0 mm 4 mps 757 mmHg 33%
    12:00 +17°C° 0 mm 4 mps 757 mmHg 34%
    13:00 +17°C° 0 mm 3 mps 757 mmHg 37%
    14:00 +17°C° 0 mm 3 mps 757 mmHg 39%
    15:00 +17°C° 0 mm 3 mps 756 mmHg 41%
    16:00 +16°C° 0 mm 2 mps 756 mmHg 44%
    17:00 +15°C° 0 mm 2 mps 756 mmHg 48%
    18:00 +14°C° 0 mm 2 mps 756 mmHg 51%
    19:00 +14°C° 0 mm 2 mps 757 mmHg 50%
    20:00 +14°C° 0 mm 2 mps 757 mmHg 48%
    21:00 +13°C° 0 mm 2 mps 758 mmHg 46%
    22:00 +12°C° 0 mm 3 mps 758 mmHg 43%
    23:00 +12°C° 0 mm 3 mps 758 mmHg 40%

    29 March, Friday

    Time Temperature Precipitation Wind Pressure Humidity
    00:00 +12°C° 0 mm 4 mps 758 mmHg 36%
    01:00 +12°C° 0 mm 4 mps 758 mmHg 36%
    02:00 +11°C° 0 mm 4 mps 758 mmHg 36%
    03:00 +10°C° 0 mm 5 mps 758 mmHg 36%
    04:00 +10°C° 0 mm 5 mps 758 mmHg 37%
    05:00 +10°C° 0 mm 6 mps 758 mmHg 38%
    06:00 +10°C° 0 mm 6 mps 758 mmHg 39%
    07:00 +12°C° 0 mm 7 mps 758 mmHg 39%
    08:00 +14°C° 0 mm 7 mps 759 mmHg 39%
    09:00 +15°C° 0 mm 8 mps 759 mmHg 38%
    10:00 +16°C° 0 mm 8 mps 759 mmHg 40%
    11:00 +16°C° 0 mm 8 mps 759 mmHg 41%
    12:00 +16°C° 0 mm 8 mps 758 mmHg 43%
    13:00 +16°C° 0 mm 7 mps 758 mmHg 45%
    14:00 +16°C° 0 mm 6 mps 758 mmHg 47%
    15:00 +16°C° 0 mm 5 mps 757 mmHg 49%
    16:00 +15°C° 0 mm 4 mps 758 mmHg 53%
    17:00 +15°C° 0 mm 2 mps 758 mmHg 57%
    18:00 +14°C° 0 mm 1 mps 758 mmHg 61%
    19:00 +14°C° 0 mm 1 mps 758 mmHg 59%
    20:00 +13°C° 0 mm 2 mps 759 mmHg 57%
    21:00 +13°C° 0 mm 2 mps 759 mmHg 55%
    22:00 +12°C° 0 mm 3 mps 759 mmHg 51%
    23:00 +11°C° 0 mm 3 mps 759 mmHg 48%

    30 March, Saturday

    Time Temperature Precipitation Wind Pressure Humidity
    00:00 +11°C° 0 mm 3 mps 759 mmHg 45%
    01:00 +11°C° 0 mm 3 mps 759 mmHg 44%
    02:00 +12°C° 0 mm 2 mps 758 mmHg 43%
    03:00 +12°C° 0 mm 2 mps 758 mmHg 42%
    04:00 +10°C° 0 mm 2 mps 758 mmHg 42%
    05:00 +10°C° 0 mm 2 mps 758 mmHg 43%
    06:00 +10°C° 0 mm 2 mps 758 mmHg 43%
    07:00 +13°C° 0 mm 2 mps 758 mmHg 41%
    08:00 +15°C° 0 mm 2 mps 758 mmHg 39%
    09:00 +16°C° 0 mm 2 mps 758 mmHg 37%
    10:00 +17°C° 0 mm 2 mps 757 mmHg 37%
    11:00 +17°C° 0 mm 2 mps 757 mmHg 38%
    12:00 +18°C° 0 mm 2 mps 756 mmHg 38%
    13:00 +18°C° 0 mm 2 mps 756 mmHg 39%
    14:00 +18°C° 0 mm 3 mps 755 mmHg 40%
    15:00 +17°C° 0 mm 3 mps 755 mmHg 41%
    16:00 +16°C° 0 mm 3 mps 754 mmHg 45%
    17:00 +14°C° 0 mm 3 mps 754 mmHg 49%
    18:00 +13°C° 0 mm 3 mps 754 mmHg 53%
    19:00 +13°C° 0 mm 3 mps 754 mmHg 54%
    20:00 +12°C° 0 mm 3 mps 754 mmHg 54%
    21:00 +12°C° 0 mm 4 mps 754 mmHg 55%
    22:00 +12°C° 0 mm 4 mps 754 mmHg 54%
    23:00 +12°C° 0 mm 3 mps 753 mmHg 53%

    31 March, Sunday

    Time Temperature Precipitation Wind Pressure Humidity
    00:00 +11°C° 0 mm 3 mps 753 mmHg 53%
    01:00 +11°C° 0 mm 3 mps 752 mmHg 52%
    02:00 +12°C° 0 mm 2 mps 752 mmHg 51%
    03:00 +12°C° 0 mm 2 mps 751 mmHg 51%
    04:00 +12°C° 0 mm 2 mps 751 mmHg 49%
    05:00 +12°C° 0 mm 1 mps 751 mmHg 48%
    06:00 +12°C° 0 mm 1 mps 751 mmHg 47%
    07:00 +14°C° 0 mm 1 mps 751 mmHg 44%
    08:00 +15°C° 0 mm 1 mps 751 mmHg 41%
    09:00 +18°C° 0 mm 1 mps 750 mmHg 38%
    10:00 +18°C° 0 mm 2 mps 750 mmHg 36%
    11:00 +18°C° 0 mm 2 mps 750 mmHg 34%
    12:00 +19°C° 0 mm 3 mps 750 mmHg 33%
    13:00 +19°C° 0 mm 3 mps 749 mmHg 33%
    14:00 +18°C° 0 mm 3 mps 749 mmHg 33%
    15:00 +18°C° 0 mm 3 mps 748 mmHg 34%
    16:00 +17°C° 0 mm 2 mps 748 mmHg 37%
    17:00 +16°C° 0 mm 1 mps 749 mmHg 40%
    18:00 +15°C° 0 mm 1 mps 749 mmHg 44%
    19:00 +14°C° 0 mm 1 mps 749 mmHg 44%
    20:00 +14°C° 0 mm 1 mps 749 mmHg 44%
    21:00 +14°C° 0 mm 1 mps 750 mmHg 44%
    22:00 +14°C° 0 mm 1 mps 750 mmHg 43%
    23:00 +13°C° 0 mm 1 mps 750 mmHg 42%
    Show more